User: anonymous   Login
Location: Daytona Beach
(29.2106°N, 81.0231°W)
Time: 05:29:31
(UTC-04:00)
Language:

RS-15 - Orbit

View from above orbital plane
View from above orbital plane
View from above satellite
View from above satellite

Ground track
Ground track

The orbit data is extracted from the following two-line orbital elements,

1 23439U 94085A   21269.89848837 -.00000037  00000-0  15882-3 0  9990
2 23439  64.8120 211.8863 0164010 317.5627  41.2712 11.27570620101770
Epoch (UTC): 26 September 2021 21:33:49
Eccentricity: 0.0164010
inclination: 64.8120°
perigee height: 1884 km
apogee height: 2160 km
right ascension of ascending node: 211.8863°
argument of perigee: 317.5627°
revolutions per day: 11.27570620
mean anomaly at epoch: 41.2712°
orbit number at epoch: 10177

The dashed part of the orbit path shows where the satellite is in the earth's shadow,  

DLR